Weather History for Waupaca, WI

Change the Weather History Date:

Wednesday, March 5, 2014

  Actual Average Record
Temperature  
Mean Temperature 8 °F -  
Max Temperature 21 °F 37 °F 55 °F (1974)
Min Temperature -5 °F 18 °F -5 °F (1978)
Degree Days  
Heating Degree Days 56    
Moisture  
Dew Point -2 °F    
Average Humidity 57    
Maximum Humidity 79    
Minimum Humidity 33    
Precipitation  
Precipitation 0.00 in - - ()
Sea Level Pressure  
Sea Level Pressure 30.45 in    
Wind  
Wind Speed 4 mph (NE)    
Max Wind Speed 9 mph    
Max Gust Speed 16 mph    
Visibility 10 miles    
Events      
Averages and records for this station are not official NWS values.
T = Trace of Precipitation, MM = Missing Value Source: NWS Daily Summary

Daily Weather History Graph

Daily Weather History Graph

Search for Another Location

Airport:

Trip Planner

Search our weather history database for the weather conditions in past years. The results will help you decide how hot, cold, wet, or windy it might be!

Date:

Astronomy

Mar. 05, 2014 Rise Set
Actual Time 6:26 AM CST 5:49 PM CST
Civil Twilight 5:57 AM CST 6:18 PM CST
Nautical Twilight 5:23 AM CST 6:52 PM CST
Astronomical Twilight 4:50 AM CST 7:25 PM CST
Moon 8:40 AM CST (3/5) 11:10 PM CST (3/5)
Length of Visible Light 12h 21m
Length of Day
11h 23m
Waxing Crescent, 23% of the Moon is Illuminated
Mar 5
Waxing Crescent
Mar 8
First Quarter
Mar 16
Full
Mar 23
Last Quarter
Mar 30
New

Hourly Weather History & Observations

Time (CST) Temp. Windchill Dew Point Humidity Pressure Visibility Wind Dir Wind Speed Gust Speed Precip Events Conditions
12:00 AM 8.6 °F - 3.2 °F 79% 30.29 in 10.0 mi Calm Calm - N/A   Clear
12:19 AM 8.6 °F 0.1 °F 3.2 °F 79% 30.28 in 10.0 mi NNE 4.6 mph - N/A   Clear
12:39 AM 10.4 °F 4.0 °F 5.0 °F 79% 30.30 in 10.0 mi NNE 3.5 mph - N/A   Clear
1:01 AM 8.6 °F 2.0 °F 3.2 °F 79% 30.31 in 10.0 mi North 3.5 mph - N/A   Clear
1:18 AM 8.6 °F 2.0 °F 3.2 °F 79% 30.32 in 10.0 mi North 3.5 mph - N/A   Scattered Clouds
1:38 AM 8.6 °F - 3.2 °F 79% 30.34 in 10.0 mi Calm Calm - N/A   Overcast
1:59 AM 8.6 °F 2.0 °F 3.2 °F 79% 30.35 in 10.0 mi NNE 3.5 mph - N/A   Mostly Cloudy
2:19 AM 10.4 °F 4.0 °F 5.0 °F 79% 30.35 in 10.0 mi NE 3.5 mph - N/A   Overcast
2:38 AM 12.2 °F 4.3 °F 5.0 °F 73% 30.36 in 10.0 mi ENE 4.6 mph - N/A   Scattered Clouds
3:19 AM 12.2 °F 2.9 °F 5.0 °F 73% 30.37 in 10.0 mi NE 5.8 mph - N/A   Scattered Clouds
3:40 AM 12.2 °F 4.3 °F 5.0 °F 73% 30.38 in 10.0 mi NE 4.6 mph - N/A   Mostly Cloudy
3:58 AM 12.2 °F 4.3 °F 5.0 °F 73% 30.38 in 10.0 mi ENE 4.6 mph - N/A   Overcast
4:21 AM 12.2 °F 2.9 °F 5.0 °F 73% 30.39 in 10.0 mi NE 5.8 mph - N/A   Overcast
4:39 AM 12.2 °F 4.3 °F 5.0 °F 73% 30.40 in 10.0 mi NE 4.6 mph - N/A   Mostly Cloudy
5:03 AM 12.2 °F 1.7 °F 5.0 °F 73% 30.41 in 10.0 mi NE 6.9 mph - N/A   Overcast
5:19 AM 12.2 °F 1.7 °F 5.0 °F 73% 30.41 in 10.0 mi NE 6.9 mph - N/A   Mostly Cloudy
5:39 AM 12.2 °F 0.7 °F 3.2 °F 67% 30.42 in 10.0 mi NE 8.1 mph - N/A   Clear
6:06 AM 12.2 °F 0.7 °F 3.2 °F 67% 30.43 in 10.0 mi NE 8.1 mph - N/A   Scattered Clouds
6:27 AM 12.2 °F 4.3 °F 3.2 °F 67% 30.43 in 10.0 mi ENE 4.6 mph - N/A   Clear
7:06 AM 12.2 °F 4.3 °F 3.2 °F 67% 30.45 in 10.0 mi ENE 4.6 mph - N/A   Scattered Clouds
7:29 AM 12.2 °F 2.9 °F 3.2 °F 67% 30.45 in 10.0 mi NE 5.8 mph - N/A   Clear
7:37 AM 12.2 °F 2.9 °F 3.2 °F 67% 30.46 in 10.0 mi ENE 5.8 mph - N/A   Clear
7:58 AM 12.2 °F 1.7 °F 3.2 °F 67% 30.46 in 10.0 mi ENE 6.9 mph - N/A   Clear
8:18 AM 12.2 °F -0.2 °F 3.2 °F 67% 30.47 in 10.0 mi NE 9.2 mph - N/A   Clear
9:38 AM 15.8 °F 5.1 °F 1.4 °F 53% 30.50 in 10.0 mi NE 8.1 mph - N/A   Clear
10:18 AM 17.6 °F 8.2 °F -0.4 °F 45% 30.51 in 7.0 mi East 6.9 mph - N/A   Clear
11:18 AM 19.4 °F 10.4 °F -0.4 °F 42% 30.51 in 10.0 mi NE 6.9 mph - N/A   Clear
11:37 AM 17.6 °F 6.4 °F -0.4 °F 45% 30.52 in 10.0 mi ENE 9.2 mph - N/A   Clear
12:00 PM 19.4 °F 9.5 °F 1.4 °F 46% 30.51 in 10.0 mi NE 8.1 mph - N/A   Clear
12:38 PM 21.2 °F 11.7 °F 1.4 °F 42% 30.51 in 10.0 mi ENE 8.1 mph - N/A   Clear
12:58 PM 19.4 °F 8.6 °F -0.4 °F 42% 30.50 in 10.0 mi East 9.2 mph - N/A   Clear
1:19 PM 19.4 °F 8.6 °F -0.4 °F 42% 30.49 in 10.0 mi ENE 9.2 mph - N/A   Clear
1:37 PM 19.4 °F 10.4 °F -0.4 °F 42% 30.50 in 10.0 mi NE 6.9 mph - N/A   Clear
1:58 PM 21.2 °F 11.7 °F -2.2 °F 36% 30.49 in 10.0 mi ENE 8.1 mph - N/A   Clear
2:18 PM 21.2 °F 12.6 °F -2.2 °F 36% 30.49 in 10.0 mi ENE 6.9 mph - N/A   Clear
2:38 PM 19.4 °F 9.5 °F -2.2 °F 39% 30.48 in 10.0 mi NE 8.1 mph 16.1 mph N/A   Clear
2:57 PM 19.4 °F 10.4 °F -4.0 °F 36% 30.48 in 10.0 mi ENE 6.9 mph - N/A   Clear
3:17 PM 19.4 °F 8.6 °F -4.0 °F 36% 30.48 in 10.0 mi ENE 9.2 mph - N/A   Clear
3:38 PM 19.4 °F 9.5 °F -4.0 °F 36% 30.49 in 10.0 mi NE 8.1 mph - N/A   Clear
3:57 PM 19.4 °F 9.5 °F -4.0 °F 36% 30.49 in 10.0 mi NE 8.1 mph - N/A   Clear
4:19 PM 19.4 °F 11.5 °F -5.8 °F 33% 30.48 in 10.0 mi ENE 5.8 mph - N/A   Clear
4:38 PM 17.6 °F 8.2 °F -5.8 °F 35% 30.49 in 10.0 mi ENE 6.9 mph - N/A   Clear
4:57 PM 17.6 °F 8.2 °F -5.8 °F 35% 30.49 in 10.0 mi NE 6.9 mph - N/A   Clear
5:17 PM 15.8 °F 7.2 °F -7.6 °F 35% 30.49 in 10.0 mi ENE 5.8 mph - N/A   Clear
5:38 PM 15.8 °F 8.6 °F -7.6 °F 35% 30.49 in 10.0 mi ENE 4.6 mph - N/A   Clear
5:58 PM 14.0 °F 6.5 °F -7.6 °F 38% 30.49 in 10.0 mi ENE 4.6 mph - N/A   Clear
6:17 PM 12.2 °F 6.1 °F -7.6 °F 41% 30.50 in 10.0 mi ENE 3.5 mph - N/A   Clear
6:40 PM 10.4 °F 2.2 °F -9.4 °F 41% 30.49 in 10.0 mi ENE 4.6 mph - N/A   Clear
6:58 PM 10.4 °F 4.0 °F -7.6 °F 44% 30.49 in 10.0 mi NE 3.5 mph - N/A   Clear
7:17 PM 10.4 °F 4.0 °F -7.6 °F 44% 30.49 in 10.0 mi ENE 3.5 mph - N/A   Clear
7:37 PM 8.6 °F 2.0 °F -9.4 °F 44% 30.48 in 10.0 mi ENE 3.5 mph - N/A   Clear
8:17 PM 6.8 °F - -9.4 °F 48% 30.48 in 10.0 mi Calm Calm - N/A   Clear
8:38 PM 6.8 °F -0.1 °F -9.4 °F 48% 30.48 in 10.0 mi ENE 3.5 mph - N/A   Clear
8:58 PM 3.2 °F - -11.2 °F 51% 30.48 in 10.0 mi Calm Calm - N/A   Clear
9:18 PM 5.0 °F - -7.6 °F 56% 30.48 in 10.0 mi Calm Calm - N/A   Clear
9:37 PM 1.4 °F - -9.4 °F 61% 30.48 in 10.0 mi Calm Calm - N/A   Clear
10:18 PM -2.2 °F - -9.4 °F 71% 30.48 in 10.0 mi Calm Calm - N/A   Clear
10:39 PM -2.2 °F - -11.2 °F 66% 30.48 in 10.0 mi Calm Calm - N/A   Clear
10:59 PM -2.2 °F - -9.4 °F 71% 30.47 in 10.0 mi Calm Calm - N/A   Clear
11:17 PM -4.0 °F - -11.2 °F 71% 30.46 in 10.0 mi Calm Calm - N/A   Clear
11:37 PM -5.8 °F - -11.2 °F 77% 30.47 in 10.0 mi Calm Calm - N/A   Clear